• Join FlightAware (Why Join?)
  • Login
  • US Flag GB Flag 
09:01 EDT


 

Airport Tracker/Info


-or-


 

Live Flight TrackerFlight Track Log ✈ DAL268 ✈ 10-Jul-2013 ✈ KSFO - KJFK

Flight Track Log - Related Links

Times and Time Zones

All times are in EDT time to prevent confusion due to time zone crossing. See the DAL268 flight status page for this flight to view local times or setup timezone preferences in your user account.

Time Position Orientation Groundspeed Altitude Reporting Facility
EDT Latitude Longitude Course Direction KTS MPH feet Rate Location/Type
14:33 37.6324 -122.3630 29° Northeast 172 198 600  Level FlightAware ADS-B
14:33 37.6395 -122.3580 29° Northeast 178 205 1,000 2,400 Climbing FlightAware ADS-B
14:33 37.6425 -122.3540 47° Northeast 182 209 1,200 2,400 Climbing FlightAware ADS-B
14:34 37.6457 -122.3500 45° Northeast 183 211 1,400 1,500 Climbing FlightAware ADS-B
14:34 37.6555 -122.3380 44° Northeast 206 237 1,700 1,260 Climbing FlightAware ADS-B
14:34 37.6677 -122.3230 44° Northeast 223 257 2,100 1,620 Climbing FlightAware ADS-B
14:34 37.6798 -122.3080 44° Northeast 238 274 2,600 1,620 Climbing FlightAware ADS-B
14:35 37.6933 -122.2910 45° Northeast 258 297 3,000 1,500 Climbing FlightAware ADS-B
14:35 37.7067 -122.2740 45° Northeast 273 314 3,400 2,400 Climbing FlightAware ADS-B
14:35 37.7259 -122.2520 42° Northeast 275 316 4,400 2,700 Climbing FlightAware ADS-B
14:36 37.7533 -122.2240 39° Northeast 275 316 5,600 2,580 Climbing FlightAware ADS-B
14:36 37.7746 -122.2030 38° Northeast 289 333 6,500 2,400 Climbing FlightAware ADS-B
14:36 37.7909 -122.1870 38° Northeast 297 342 7,000 2,160 Climbing FlightAware ADS-B
14:37 37.8076 -122.1710 37° Northeast 303 349 7,600 2,400 Climbing FlightAware ADS-B
14:37 37.8247 -122.1540 38° Northeast 306 352 8,200 2,400 Climbing FlightAware ADS-B
14:37 37.8419 -122.1380 36° Northeast 310 357 8,800 2,280 Climbing FlightAware ADS-B
14:37 37.8592 -122.1210 38° Northeast 312 359 9,400 2,040 Climbing FlightAware ADS-B
14:38 37.8946 -122.0870 37° Northeast 328 377 10,400 1,380 Climbing FlightAware ADS-B
14:38 37.9340 -122.0490 37° Northeast 365 420 10,800 780 Climbing FlightAware ADS-B
14:39 37.9766 -122.0080 37° Northeast 398 458 11,200 1,320 Climbing FlightAware ADS-B
14:39 38.0310 -121.9550 37° Northeast 415 478 12,300 1,860 Climbing FlightAware
14:40 38.0890 -121.8990 37° Northeast 430 495 13,500 1,980 Climbing FlightAware
14:41 38.1580 -121.8320 37° Northeast 442 509 15,000 2,160 Climbing FlightAware
14:41 38.2270 -121.7640 38° Northeast 446 513 16,600 2,040 Climbing FlightAware
14:42 38.2990 -121.6940 37° Northeast 457 526 17,900 1,920 Climbing FlightAware
14:43 38.3660 -121.6280 38° Northeast 460 529 19,300 1,800 Climbing FlightAware
14:44 38.4350 -121.5560 39° Northeast 466 536 20,400 1,560 Climbing FlightAware
14:44 38.4890 -121.4760 49° Northeast 469 540 21,400 1,500 Climbing FlightAware
14:45 38.5516 -121.3680 53° Northeast 477 549 22,600 1,500 Climbing FlightAware ADS-B
14:46 38.5960 -121.2900 54° Northeast 483 556 23,500 1,500 Climbing FlightAware
14:46 38.6470 -121.2030 53° Northeast 488 562 24,400 1,380 Climbing FlightAware
14:47 38.7010 -121.1100 53° Northeast 494 568 25,300 1,200 Climbing FlightAware
14:48 38.7560 -121.0140 54° Northeast 504 580 26,000 1,020 Climbing FlightAware
14:48 38.8170 -120.9080 54° Northeast 511 588 26,800 1,080 Climbing FlightAware
14:49 38.8770 -120.8050 53° Northeast 519 597 27,600 1,080 Climbing FlightAware
14:50 38.9410 -120.6950 53° Northeast 525 604 28,400 1,200 Climbing FlightAware
14:50 38.9980 -120.5950 54° Northeast 526 605 29,300 1,020 Climbing FlightAware
14:51 39.0550 -120.4950 54° Northeast 532 612 29,800 1,140 Climbing FlightAware
14:52 39.1190 -120.3850 53° Northeast 528 608 30,900 1,500 Climbing FlightAware
14:52 39.1830 -120.2720 54° Northeast 524 603 32,000 1,200 Climbing FlightAware
14:53 39.2400 -120.1720 54° Northeast 526 605 32,600 960 Climbing FlightAware
14:54 39.3030 -120.0620 53° Northeast 526 605 33,400 1,080 Climbing FlightAware
14:55 39.3640 -119.9540 54° Northeast 524 603 34,200 900 Climbing FlightAware
14:55 39.4200 -119.8540 54° Northeast 527 606 34,700 540 Climbing FlightAware
14:56 39.4830 -119.7420 54° Northeast 529 609 35,000 180 Climbing FlightAware
14:57 39.5380 -119.6430 54° Northeast 530 610 35,000  Level FlightAware
14:57 39.6050 -119.5240 54° Northeast 525 604 35,000  Level FlightAware
14:58 39.6550 -119.4350 54° Northeast 525 604 35,000  Level FlightAware
14:59 39.7120 -119.3310 55° Northeast 523 602 35,000  Level FlightAware
14:59 39.7720 -119.2240 54° Northeast 521 600 35,000  Level FlightAware
15:00 39.8240 -119.1300 54° Northeast 521 600 35,000  Level FlightAware
15:01 39.8890 -119.0110 55° Northeast 520 598 35,000  Level FlightAware
15:01 39.9530 -118.8930 55° Northeast 522 601 35,000  Level FlightAware
15:02 40.0080 -118.7930 54° Northeast 523 602 35,000  Level FlightAware
15:03 40.0710 -118.6770 55° Northeast 524 603 35,000  Level FlightAware
15:04 40.1230 -118.5710 57° Northeast 521 600 35,000  Level FlightAware
15:04 40.1540 -118.4730 67° East 519 597 35,000  Level FlightAware
15:05 40.1880 -118.3510 70° East 519 597 35,000  Level FlightAware
15:06 40.2340 -118.1800 71° East 519 597 35,000  Level FlightAware
15:06 40.2650 -118.0690 70° East 519 597 35,000  Level FlightAware
15:07 40.2900 -117.9790 70° East 519 597 35,000  Level FlightAware
15:08 40.3230 -117.8600 70° East 519 597 35,000  Level FlightAware
15:08 40.3480 -117.7700 70° East 519 597 35,000  Level FlightAware
15:09 40.3820 -117.6460 70° East 519 597 35,000  Level FlightAware
15:10 40.4070 -117.5560 70° East 519 597 35,000  Level FlightAware
15:10 40.4310 -117.4700 70° East 519 597 35,000  Level FlightAware
15:11 40.4680 -117.3370 70° East 519 597 35,000  Level FlightAware
15:12 40.4930 -117.2460 70° East 519 597 35,000  Level FlightAware
15:13 40.5190 -117.1520 70° East 519 597 35,000  Level FlightAware
15:13 40.5510 -117.0360 70° East 519 597 35,000  Level FlightAware
15:14 40.5770 -116.9430 70° East 519 597 35,000  Level FlightAware
15:15 40.6410 -116.7110 70° East 519 597 35,000  Level FlightAware
15:19 40.9808 -115.8570 62° Northeast 524 603 35,000  Level FlightAware ADS-B
15:20 41.0140 -115.7700 63° Northeast 523 602 35,000  Level FlightAware ADS-B
15:20 41.0470 -115.6820 64° Northeast 523 602 35,000  Level FlightAware ADS-B
15:21 41.0831 -115.5870 63° Northeast 524 603 35,000  Level FlightAware ADS-B
15:21 41.1247 -115.4760 64° Northeast 524 603 35,000  Level FlightAware ADS-B
15:22 41.1651 -115.3680 64° Northeast 524 603 35,000  Level FlightAware ADS-B
15:23 41.2080 -115.2530 64° Northeast 524 603 35,000  Level FlightAware ADS-B
15:23 41.2410 -115.1640 64° Northeast 525 604 35,000  Level FlightAware ADS-B
15:24 41.2733 -115.0770 64° Northeast 525 604 35,000  Level FlightAware ADS-B
15:24 41.3055 -114.9890 64° Northeast 525 604 35,000  Level FlightAware ADS-B
15:25 41.3379 -114.9010 64° Northeast 525 604 35,000  Level FlightAware ADS-B
15:26 41.4039 -114.7210 64° Northeast 526 605 35,000  Level FlightAware ADS-B
15:26 41.4383 -114.6270 64° Northeast 526 605 35,000  Level FlightAware ADS-B
15:27 41.4759 -114.5230 64° Northeast 526 605 35,000  Level FlightAware ADS-B
15:27 41.5082 -114.4340 64° Northeast 526 605 35,000  Level FlightAware ADS-B
15:28 41.5400 -114.3450 64° Northeast 527 606 35,000  Level FlightAware ADS-B
15:28 41.5718 -114.2570 64° Northeast 526 605 35,000  Level FlightAware ADS-B
15:29 41.6039 -114.1680 64° Northeast 526 605 35,000  Level FlightAware ADS-B
15:29 41.6358 -114.0780 65° Northeast 527 606 35,000  Level FlightAware ADS-B
15:30 41.6676 -113.9890 64° Northeast 527 606 35,000  Level FlightAware ADS-B
15:30 41.6992 -113.9000 65° Northeast 527 606 35,000  Level FlightAware ADS-B
15:31 41.7480 -113.7610 65° Northeast 527 606 35,000  Level FlightAware
15:31 41.7643 -113.7160 64° Northeast 527 606 35,000  Level FlightAware ADS-B
15:32 41.7978 -113.6210 65° Northeast 527 606 35,000  Level FlightAware ADS-B
15:33 41.8330 -113.5200 65° Northeast 526 605 35,000  Level FlightAware
15:33 41.8445 -113.4870 65° Northeast 527 606 35,000  Level FlightAware ADS-B
15:33 41.8770 -113.3950 65° Northeast 526 605 35,000  Level FlightAware
15:33 41.8871 -113.3650 66° East 526 605 35,000  Level FlightAware ADS-B
15:34 41.9170 -113.2790 65° Northeast 526 605 35,000  Level FlightAware
15:34 41.9509 -113.1810 65° Northeast 526 605 35,000  Level FlightAware ADS-B
15:35 41.9859 -113.0800 65° Northeast 526 605 35,000  Level FlightAware ADS-B
15:36 42.0182 -112.9860 65° Northeast 526 605 35,000  Level FlightAware ADS-B
15:36 42.0538 -112.8820 65° Northeast 526 605 35,000  Level FlightAware ADS-B
15:37 42.0842 -112.7930 65° Northeast 526 605 35,000  Level FlightAware ADS-B
15:38 42.1370 -112.6390 65° Northeast 526 605 35,000  Level FlightAware
15:39 42.2071 -112.4300 66° East 527 606 35,000  Level FlightAware ADS-B
15:39 42.2415 -112.3250 66° East 527 606 35,000  Level FlightAware ADS-B
15:40 42.2965 -112.1560 66° East 527 606 35,000  Level FlightAware ADS-B
15:41 42.3266 -112.0630 66° East 526 605 35,000  Level FlightAware ADS-B
15:41 42.3560 -111.9720 66° East 526 605 35,000  Level FlightAware ADS-B
15:42 42.3854 -111.8810 66° East 524 603 35,000  Level FlightAware ADS-B
15:42 42.4181 -111.7790 66° East 524 603 35,000  Level FlightAware ADS-B
15:43 42.4706 -111.6150 66° East 523 602 35,000  Level FlightAware ADS-B
15:43 42.4830 -111.5800 64° Northeast 521 600 35,000  Level FlightAware ADS-B
15:44 42.5350 -111.4661 64° Northeast 519 597 35,000  Level Salt Lake Center
15:45 42.6136 -111.3036 57° Northeast 514 592 35,000  Level Salt Lake Center
15:46 42.6906 -111.1408 57° Northeast 513 590 35,000  Level Salt Lake Center
15:47 42.7742 -110.9653 57° Northeast 516 594 35,000  Level Salt Lake Center
15:48 42.8600 -110.7831 57° Northeast 514 592 35,000  Level Salt Lake Center
15:49 42.9311 -110.6286 58° Northeast 506 582 35,000  Level Salt Lake Center
15:50 43.0039 -110.4750 57° Northeast 505 581 35,000  Level Salt Lake Center
15:51 43.0750 -110.2811 63° Northeast 511 588 35,000  Level Salt Lake Center
15:52 43.1214 -110.1039 70° East 518 596 35,000  Level Salt Lake Center
15:53 43.1744 -109.9006 70° East 514 592 35,000  Level Salt Lake Center
15:54 43.2231 -109.7128 70° East 514 592 35,000  Level Salt Lake Center
15:56 43.2692 -109.5283 71° East 513 590 35,000  Level Salt Lake Center
15:57 43.3161 -109.3431 71° East 515 593 35,000  Level Salt Lake Center
15:58 43.3686 -109.1361 71° East 517 595 35,000  Level Salt Lake Center
15:59 43.4167 -108.9344 72° East 515 593 35,000  Level Salt Lake Center
16:00 43.4631 -108.7469 71° East 518 596 35,000  Level Salt Lake Center
16:01 43.5078 -108.5603 72° East 518 596 35,000  Level Salt Lake Center
16:02 43.5533 -108.3731 71° East 520 598 35,000  Level Salt Lake Center
16:03 43.5983 -108.1872 71° East 516 594 35,000  Level Salt Lake Center
16:04 43.6514 -107.9628 72° East 515 593 35,000  Level Salt Lake Center
16:05 43.6958 -107.7744 72° East 518 596 35,000  Level Salt Lake Center
16:06 43.7394 -107.5853 72° East 519 597 35,000  Level Salt Lake Center
16:07 43.7883 -107.3750 72° East 516 594 35,000  Level Salt Lake Center
16:08 43.8242 -107.2086 73° East 517 595 35,000  Level Salt Lake Center
16:09 43.8672 -107.0219 72° East 514 592 35,000  Level Salt Lake Center
16:10 43.9172 -106.8050 72° East 510 587 35,000  Level Salt Lake Center
16:11 43.9594 -106.6219 72° East 510 587 35,000  Level Denver Center
16:12 43.9992 -106.4106 75° East 509 586 35,000  Level Denver Center
16:13 44.0011 -106.2239 89° East 515 593 35,000  Level Salt Lake Center
16:14 44.0058 -105.9944 88° East 522 601 35,000  Level Salt Lake Center
16:15 44.0050 -105.8039 90° East 518 596 35,000  Level Salt Lake Center
16:16 44.0064 -105.5794 89° East 519 597 35,000  Level Salt Lake Center
16:17 44.0061 -105.3878 90° East 519 597 35,000  Level Salt Lake Center
16:18 44.0050 -105.1661 90° East 515 593 35,000  Level Salt Lake Center
16:19 44.0036 -104.9742 91° East 519 597 35,000 180 Level Salt Lake Center
16:20 44.0031 -104.9117 91° East 517 595 35,300 960 Climbing Denver Center
16:21 44.0014 -104.6553 90° East 519 597 36,600 780 Climbing Denver Center
16:22 43.9994 -104.4319 91° East 518 596 37,000 180 Climbing Denver Center
16:23 43.9972 -104.2439 91° East 512 589 37,000  Level Denver Center
16:24 43.9944 -104.0178 91° East 521 600 37,000  Level Denver Center
16:25 43.9914 -103.8236 91° East 524 603 37,000  Level Denver Center
16:26 43.9892 -103.6286 91° East 528 608 37,000  Level Denver Center
16:27 43.9856 -103.4058 91° East 520 598 37,000  Level Denver Center
16:28 43.9814 -103.2153 92° East 517 595 37,000  Level Denver Center
16:29 43.9858 -102.9933 88° East 518 596 37,000  Level Denver Center
16:30 44.0450 -102.8158 65° Northeast 494 568 37,000  Level Denver Center
16:31 44.1025 -102.6419 65° Northeast 493 567 37,000  Level Denver Center
16:32 44.1617 -102.4708 64° Northeast 490 564 37,000  Level Denver Center
16:33 44.2175 -102.2975 66° East 492 566 37,000  Level Denver Center
16:34 44.2747 -102.1231 65° Northeast 494 568 37,000  Level Denver Center
16:35 44.3306 -101.9503 66° East 491 565 37,000  Level Denver Center
16:36 44.3967 -101.7397 66° East 492 566 37,000  Level Denver Center
16:37 44.4533 -101.5656 65° Northeast 492 566 37,000  Level Denver Center
16:38 44.5072 -101.3897 67° East 493 567 37,000  Level Denver Center
16:40 44.5642 -101.2158 65° Northeast 491 565 37,000  Level Denver Center
16:41 44.6197 -101.0389 66° East 494 568 37,000  Level Denver Center
16:42 44.6733 -100.8631 67° East 493 567 37,000  Level Denver Center
16:43 44.7511 -100.6175 66° East 493 567 37,000  Level Minneapolis Center
16:44 44.8172 -100.4067 66° East 492 566 37,000  Level Minneapolis Center
16:45 44.8700 -100.2294 67° East 493 567 37,000  Level Minneapolis Center
16:46 44.9325 -100.0192 67° East 492 566 37,000  Level Minneapolis Center
16:47 44.9850 -99.8419 67° East 506 582 37,000  Level Minneapolis Center
16:48 45.0397 -99.6675 66° East 498 573 37,000  Level Minneapolis Center
16:49 45.0922 -99.4889 67° East 496 571 37,000  Level Minneapolis Center
16:50 45.1469 -99.3086 67° East 499 574 37,000  Level Minneapolis Center
16:56 45.4340 -98.2680 67° East 516 594 37,000  Level FlightAware
16:57 45.4550 -98.1340 77° East 516 594 37,000  Level FlightAware
16:57 45.4770 -97.9970 77° East 518 596 37,000  Level FlightAware
16:58 45.5080 -97.7930 78° East 519 597 37,000  Level FlightAware
16:59 45.5280 -97.6620 78° East 515 593 37,000  Level FlightAware
16:59 45.5470 -97.5430 77° East 511 588 37,000  Level FlightAware
17:00 45.5720 -97.3840 77° East 511 588 37,000  Level FlightAware
17:02 45.6210 -97.0470 78° East 507 583 37,000  Level FlightAware
17:03 45.6440 -96.8950 78° East 507 583 37,000  Level FlightAware
17:03 45.6630 -96.7660 78° East 507 583 37,000  Level FlightAware
17:04 45.6810 -96.6410 78° East 507 583 37,000  Level FlightAware
17:05 45.7000 -96.5040 79° East 508 585 37,000  Level FlightAware
17:05 45.7190 -96.3720 78° East 508 585 37,000  Level FlightAware
17:06 45.7370 -96.2470 78° East 508 585 37,000  Level FlightAware
17:07 45.7560 -96.1080 79° East 507 583 37,000  Level FlightAware
17:07 45.7760 -95.9650 79° East 505 581 37,000  Level FlightAware
17:08 45.7940 -95.8310 79° East 502 578 37,000  Level FlightAware
17:09 45.8130 -95.6890 79° East 501 577 37,000  Level FlightAware
17:09 45.8310 -95.5590 79° East 497 572 37,000  Level FlightAware
17:10 45.8460 -95.4460 79° East 494 568 37,000  Level FlightAware
17:11 45.8760 -95.2190 79° East 492 566 37,000  Level FlightAware
17:12 45.8930 -95.0880 79° East 492 566 37,000  Level FlightAware
17:13 45.9100 -94.9560 79° East 492 566 37,000  Level FlightAware
17:13 45.9290 -94.8110 79° East 491 565 37,000  Level FlightAware
17:14 45.9450 -94.6820 80° East 491 565 37,000  Level FlightAware
17:16 45.9840 -94.3660 80° East 495 570 37,000  Level FlightAware
17:17 46.0050 -94.1920 80° East 497 572 37,000  Level FlightAware
17:17 46.0200 -94.0670 80° East 499 574 37,000  Level FlightAware
17:18 46.0370 -93.9260 80° East 500 575 37,000  Level FlightAware
17:19 46.0530 -93.7940 80° East 500 575 37,000  Level FlightAware
17:19 46.0700 -93.6470 80° East 501 577 37,000  Level FlightAware
17:20 46.0850 -93.5190 80° East 501 577 37,000  Level FlightAware
17:21 46.1000 -93.3850 81° East 501 577 37,000  Level FlightAware
17:21 46.1140 -93.2620 81° East 502 578 37,000  Level FlightAware
17:22 46.1300 -93.1160 81° East 502 578 37,000  Level FlightAware
17:23 46.1440 -92.9970 80° East 503 579 37,000  Level FlightAware
17:23 46.1580 -92.8690 81° East 503 579 37,000  Level FlightAware
17:24 46.1730 -92.7240 81° East 503 579 37,000  Level FlightAware
17:25 46.1860 -92.6040 81° East 503 579 37,000  Level FlightAware
17:25 46.2030 -92.4440 81° East 503 579 37,000  Level FlightAware
17:26 46.2140 -92.3100 83° East 506 582 37,000 -600 Level FlightAware
17:27 46.2100 -92.1620 92° East 509 586 36,200 -720 Descending FlightAware
17:28 46.2020 -92.0290 95° East 511 588 36,000 -180 Descending FlightAware
17:28 46.1940 -91.9070 95° East 511 588 36,000  Level FlightAware
17:29 46.1850 -91.7740 96° East 511 588 36,000  Level FlightAware
17:30 46.1760 -91.6230 95° East 508 585 36,000  Level FlightAware
17:30 46.1680 -91.5020 95° East 507 583 36,000  Level FlightAware
17:31 46.1580 -91.3600 96° East 505 581 36,000  Level FlightAware
17:31 46.1500 -91.2280 95° East 504 580 36,000  Level FlightAware
17:32 46.1400 -91.0930 96° East 503 579 36,000  Level FlightAware
17:33 46.1300 -90.9490 96° East 503 579 36,000  Level FlightAware
17:34 46.1200 -90.8090 96° East 504 580 36,000  Level FlightAware
17:34 46.1100 -90.6680 96° East 505 581 36,000  Level FlightAware
17:35 46.1020 -90.5540 96° East 505 581 36,000 660 Level FlightAware
17:36 46.0910 -90.4080 96° East 503 579 36,900 1,020 Climbing FlightAware
17:36 46.0800 -90.2690 96° East 506 582 37,500 900 Climbing FlightAware
17:37 46.0710 -90.1450 96° East 505 581 38,100 1,020 Climbing FlightAware
17:38 46.0610 -90.0150 96° East 501 577 38,800 660 Climbing FlightAware
17:38 46.0500 -89.8810 97° East 503 579 39,000 120 Climbing FlightAware
17:39 46.0380 -89.7330 97° East 505 581 39,000  Level FlightAware
17:40 46.0270 -89.5990 97° East 503 579 39,000  Level FlightAware
17:40 46.0150 -89.4450 96° East 502 578 39,000  Level FlightAware
17:41 46.0040 -89.3160 97° East 500 575 39,000  Level FlightAware
17:42 45.9940 -89.2000 97° East 498 573 39,000  Level FlightAware
17:42 45.9820 -89.0590 97° East 498 573 39,000  Level FlightAware
17:43 45.9700 -88.9260 97° East 498 573 39,000  Level FlightAware
17:44 45.9590 -88.7990 97° East 497 572 39,000  Level FlightAware
17:44 45.9480 -88.6850 98° East 497 572 39,000  Level FlightAware
17:46 45.9290 -88.4690 97° East 498 573 39,000  Level FlightAware
17:46 45.9190 -88.3630 98° East 498 573 39,000  Level FlightAware
17:47 45.9080 -88.2260 97° East 498 573 39,000  Level FlightAware
17:48 45.8970 -88.0980 97° East 498 573 39,000  Level FlightAware
17:48 45.8880 -87.9970 97° East 498 573 39,000  Level FlightAware
17:49 45.8770 -87.8630 97° East 498 573 39,000  Level FlightAware
17:50 45.8680 -87.7630 97° East 498 573 39,000  Level FlightAware
17:51 45.8540 -87.5950 97° East 498 573 39,000  Level FlightAware
17:51 45.8450 -87.4920 97° East 498 573 39,000  Level FlightAware
17:52 45.8360 -87.3920 97° East 498 573 39,000  Level FlightAware
17:53 45.8250 -87.2580 97° East 498 573 39,000  Level FlightAware
17:53 45.8160 -87.1570 97° East 498 573 39,000  Level FlightAware
17:54 45.7540 -86.7310 102° East 490 564 39,000  Level FlightAware
17:55 45.7400 -86.6050 99° East 488 562 39,000  Level FlightAware
17:56 45.7250 -86.4640 99° East 489 563 39,000  Level FlightAware
17:56 45.7100 -86.3350 99° East 488 562 39,000  Level FlightAware
17:57 45.6960 -86.2090 99° East 487 560 39,000  Level FlightAware
17:58 45.6800 -86.0680 99° East 488 562 39,000  Level FlightAware
17:58 45.6650 -85.9350 99° East 492 566 39,000  Level FlightAware
17:59 45.6480 -85.7920 100° East 500 575 39,000  Level FlightAware
17:59 45.6410 -85.7290 99° East 502 578 39,000  Level FlightAware
18:01 45.6160 -85.5220 100° East 490 564 39,000  Level FlightAware
18:01 45.6000 -85.3890 100° East 491 565 39,000  Level FlightAware
18:02 45.5840 -85.2570 100° East 489 563 39,000  Level FlightAware
18:03 45.5670 -85.1170 100° East 487 560 39,000  Level FlightAware
18:03 45.5510 -84.9910 100° East 486 559 39,000  Level FlightAware
18:04 45.5340 -84.8500 100° East 486 559 39,000  Level FlightAware
18:05 45.5200 -84.7390 100° East 487 560 39,000  Level FlightAware
18:05 45.5010 -84.5930 100° East 490 564 39,000  Level FlightAware
18:06 45.4830 -84.4520 100° East 494 568 39,000  Level FlightAware
18:07 45.4660 -84.3250 101° East 497 572 39,000  Level FlightAware
18:08 45.4480 -84.1830 100° East 500 575 39,000  Level FlightAware
18:08 45.4320 -84.0660 101° East 503 579 39,000  Level FlightAware
18:09 45.4150 -83.9350 100° East 505 581 39,000  Level FlightAware
18:10 45.3950 -83.7930 101° East 508 585 39,000  Level FlightAware
18:10 45.3810 -83.6870 101° East 509 586 39,000  Level FlightAware
18:11 45.3600 -83.5260 100° East 509 586 39,000  Level FlightAware
18:12 45.3370 -83.3710 102° East 511 588 39,000  Level FlightAware
18:12 45.3170 -83.2250 101° East 513 590 39,000  Level FlightAware
18:13 45.2980 -83.0950 102° East 515 593 39,000  Level FlightAware
18:14 45.2780 -82.9540 101° East 516 594 39,000  Level FlightAware
18:14 45.2590 -82.8220 102° East 518 596 39,000  Level FlightAware
18:15 45.2540 -82.7870 101° East 519 597 39,000  Level FlightAware
18:16 45.2200 -82.5520 102° East 522 601 39,000  Level FlightAware
18:17 45.1800 -82.3470 105° East 518 596 39,000  Level FlightAware
18:18 45.1510 -82.2160 107° East 521 600 39,000  Level FlightAware
18:18 45.1190 -82.0710 107° East 523 602 39,000  Level FlightAware
18:19 45.0930 -81.9570 108° East 524 603 39,000  Level FlightAware
18:20 45.0620 -81.8170 107° East 524 603 39,000  Level FlightAware
18:20 45.0320 -81.6860 108° East 525 604 39,000  Level FlightAware
18:21 45.0030 -81.5590 108° East 524 603 39,000  Level FlightAware
18:22 44.9680 -81.4080 108° East 521 600 39,000  Level FlightAware
18:22 44.9350 -81.2660 108° East 517 595 39,000  Level FlightAware
18:23 44.9060 -81.1410 108° East 511 588 39,000  Level FlightAware
18:24 44.8810 -81.0330 108° East 507 583 39,000  Level FlightAware
18:25 44.8430 -80.8720 108° East 504 580 39,000  Level FlightAware
18:25 44.8130 -80.7460 109° East 502 578 39,000  Level FlightAware
18:26 44.7840 -80.6220 108° East 503 579 39,000  Level FlightAware
18:27 44.7540 -80.4990 109° East 503 579 39,000  Level FlightAware
18:27 44.7210 -80.3630 109° East 506 582 39,000  Level FlightAware
18:28 44.6910 -80.2370 108° East 511 588 39,000  Level FlightAware
18:29 44.6600 -80.1100 109° East 512 589 39,000  Level FlightAware
18:29 44.6280 -79.9810 109° East 518 596 39,000  Level FlightAware
18:30 44.5810 -79.7920 109° East 524 603 39,000  Level FlightAware
18:31 44.5400 -79.6310 110° East 526 605 39,000  Level FlightAware
18:32 44.4970 -79.4700 110° East 527 606 39,000  Level FlightAware
18:33 44.4610 -79.3320 110° East 527 606 39,000  Level FlightAware
18:33 44.4310 -79.2180 110° East 528 608 39,000  Level FlightAware
18:34 44.3920 -79.0720 110° East 524 603 39,000  Level FlightAware
18:35 44.3580 -78.9450 110° East 523 602 39,000  Level FlightAware
18:35 44.3200 -78.8060 111° Southeast 520 598 39,000  Level FlightAware
18:36 44.2860 -78.6810 111° Southeast 518 596 39,000  Level FlightAware
18:37 44.2490 -78.5420 110° East 517 595 39,000  Level FlightAware
18:38 44.2150 -78.4180 111° Southeast 516 594 39,000  Level FlightAware
18:38 44.1760 -78.2780 111° Southeast 516 594 39,000  Level FlightAware
18:39 44.1370 -78.1380 111° Southeast 515 593 39,000  Level FlightAware
18:40 44.0990 -78.0020 111° Southeast 513 590 39,000  Level FlightAware
18:40 44.0640 -77.8770 111° Southeast 513 590 39,000  Level FlightAware
18:41 44.0250 -77.7380 111° Southeast 513 590 39,000  Level FlightAware
18:42 43.9930 -77.6230 111° Southeast 512 589 39,000  Level FlightAware
18:43 43.9560 -77.4940 112° Southeast 512 589 39,000  Level FlightAware
18:43 43.9220 -77.3740 111° Southeast 510 587 39,000  Level FlightAware
18:44 43.8740 -77.2070 112° Southeast 505 581 39,000  Level FlightAware
18:45 43.8390 -77.0870 112° Southeast 503 579 39,000  Level FlightAware
18:45 43.8040 -76.9670 112° Southeast 500 575 39,000  Level FlightAware
18:46 43.7660 -76.8370 112° Southeast 497 572 39,000  Level FlightAware
18:47 43.7310 -76.7360 116° Southeast 485 558 39,000  Level FlightAware
18:48 43.6680 -76.6350 131° Southeast 467 537 39,000  Level FlightAware
18:48 43.5970 -76.5410 136° Southeast 474 545 39,000  Level FlightAware
18:49 43.5330 -76.4560 136° Southeast 484 557 39,000  Level FlightAware
18:50 43.4740 -76.3780 136° Southeast 493 567 39,000  Level FlightAware
18:50 43.3930 -76.2730 137° Southeast 500 575 39,000  Level FlightAware
18:51 43.3310 -76.1910 136° Southeast 498 573 39,000  Level FlightAware
18:52 43.2530 -76.0890 136° Southeast 495 570 39,000  Level FlightAware
18:52 43.1900 -76.0060 136° Southeast 493 567 39,000  Level FlightAware
18:53 43.1310 -75.9300 137° Southeast 490 564 39,000  Level FlightAware
18:54 43.0610 -75.8400 137° Southeast 488 562 39,000  Level FlightAware
18:54 42.9900 -75.7480 137° Southeast 487 560 39,000  Level FlightAware
18:55 42.9240 -75.6630 137° Southeast 486 559 39,000  Level FlightAware
18:56 42.8500 -75.5690 137° Southeast 485 558 39,000  Level FlightAware
18:57 42.7770 -75.4750 137° Southeast 482 555 39,000  Level FlightAware
18:57 42.7140 -75.3960 137° Southeast 480 552 39,000 -780 Level FlightAware
18:58 42.6550 -75.3210 137° Southeast 493 567 38,100 -1,560 Descending FlightAware
18:59 42.5810 -75.2260 137° Southeast 485 558 37,000 -1,980 Descending FlightAware
18:59 42.5120 -75.1470 140° Southeast 478 550 35,300 -2,580 Descending FlightAware
19:00 42.4260 -75.0920 155° Southeast 470 541 33,400 -2,640 Descending FlightAware
19:01 42.3540 -75.0520 158° South 472 543 31,800 -1,740 Descending FlightAware
19:01 42.2590 -74.9880 153° Southeast 481 554 31,000 -960 Descending FlightAware
19:02 42.2037 -74.9142 135° Southeast 491 565 30,500 -1,140 Descending FlightAware ADS-B
19:02 42.1618 -74.8341 125° Southeast 494 568 29,800 -1,260 Descending FlightAware ADS-B
19:03 42.1214 -74.7553 125° Southeast 494 568 29,200 -1,200 Descending FlightAware ADS-B
19:04 42.0805 -74.6756 125° Southeast 492 566 28,600 -960 Descending FlightAware ADS-B
19:04 42.0202 -74.5591 125° Southeast 489 563 28,000 -480 Descending FlightAware ADS-B
19:05 41.9803 -74.4822 125° Southeast 489 563 28,000  Level FlightAware ADS-B
19:05 41.9730 -74.4691 127° Southeast 490 564 28,000  Level FlightAware ADS-B
19:05 41.9411 -74.4218 132° Southeast 485 558 28,000  Level FlightAware ADS-B
19:06 41.8943 -74.3737 143° Southeast 477 549 28,000  Level FlightAware ADS-B
19:06 41.8244 -74.3274 154° Southeast 474 545 28,000  Level FlightAware ADS-B
19:07 41.7636 -74.2908 156° South 475 547 28,000 -720 Level FlightAware ADS-B
19:07 41.7038 -74.2551 156° South 470 541 27,300 -2,100 Descending FlightAware ADS-B
19:08 41.6439 -74.2190 156° South 468 539 25,900 -2,760 Descending FlightAware ADS-B
19:08 41.5831 -74.1824 156° South 461 531 24,500 -2,760 Descending FlightAware ADS-B
19:09 41.5204 -74.1447 156° South 454 522 23,000 -2,640 Descending FlightAware ADS-B
19:09 41.4616 -74.1092 156° South 448 516 21,700 -2,520 Descending FlightAware ADS-B
19:10 41.4237 -74.0867 156° South 442 509 20,900 -2,400 Descending FlightAware ADS-B
19:10 41.4052 -74.0784 161° South 437 503 20,500 -2,220 Descending FlightAware ADS-B
19:10 41.3878 -74.0733 168° South 433 498 20,200 -1,080 Descending FlightAware ADS-B
19:10 41.3605 -74.0699 175° South 428 493 20,100 -540 Descending FlightAware ADS-B
19:10 41.3396 -74.0710 182° South 425 489 20,000 -180 Descending FlightAware ADS-B
19:11 41.2795 -74.0792 186° South 423 487 20,000  Level FlightAware ADS-B
19:11 41.2205 -74.0882 187° South 425 489 20,000 -300 Level FlightAware ADS-B
19:12 41.1611 -74.0975 187° South 424 488 19,700 -720 Descending FlightAware ADS-B
19:12 41.1233 -74.1033 187° South 414 476 19,400 -1,200 Descending FlightAware ADS-B
19:12 41.1028 -74.1065 187° South 408 470 19,100 -780 Descending FlightAware ADS-B
19:13 41.0643 -74.1123 186° South 395 455 19,000 -240 Descending FlightAware ADS-B
19:13 41.0483 -74.1147 186° South 374 430 19,000  Level FlightAware ADS-B
19:13 41.0089 -74.1207 187° South 349 402 19,000  Level FlightAware ADS-B
19:13 41.0014 -74.1216 185° South 346 398 19,000  Level FlightAware ADS-B
19:13 40.9964 -74.1220 183° South 346 398 19,000  Level FlightAware ADS-B
19:14 40.9873 -74.1218 179° South 346 398 19,000  Level FlightAware ADS-B
19:14 40.9777 -74.1202 173° South 346 398 19,000 -1,680 Level FlightAware ADS-B
19:14 40.9285 -74.1023 165° South 364 419 18,000 -1,980 Descending FlightAware ADS-B
19:14 40.9227 -74.0999 163° South 347 399 17,900 -1,980 Descending FlightAware ADS-B
19:15 40.8789 -74.0820 163° South 364 419 17,000 -2,040 Descending FlightAware ADS-B
19:15 40.8746 -74.0803 163° South 364 419 16,900 -1,800 Descending FlightAware ADS-B
19:15 40.8277 -74.0621 164° South 370 426 16,100 -1,620 Descending FlightAware ADS-B
19:15 40.8206 -74.0594 164° South 369 425 16,000 -240 Descending FlightAware ADS-B
19:16 40.7783 -74.0428 163° South 370 426 16,000  Level FlightAware ADS-B
19:16 40.7685 -74.0389 163° South 370 426 16,000  Level FlightAware ADS-B
19:16 40.7276 -74.0229 163° South 373 429 16,000 -780 Level FlightAware ADS-B
19:17 40.6773 -74.0036 164° South 376 433 15,300 -1,440 Descending FlightAware ADS-B
19:17 40.6492 -73.9927 164° South 372 428 14,900 -1,620 Descending FlightAware ADS-B
19:17 40.6393 -73.9882 161° South 373 429 14,700 -1,860 Descending FlightAware ADS-B
19:17 40.6283 -73.9817 156° South 374 430 14,500 -1,500 Descending FlightAware ADS-B
19:17 40.6214 -73.9766 151° Southeast 374 430 14,400 -1,500 Descending FlightAware ADS-B
19:17 40.6109 -73.9669 145° Southeast 374 430 14,200 -1,680 Descending FlightAware ADS-B
19:18 40.5973 -73.9495 136° Southeast 371 427 13,900 -1,440 Descending FlightAware ADS-B
19:18 40.5667 -73.8965 127° Southeast 356 410 13,200 -1,560 Descending FlightAware ADS-B
19:19 40.5368 -73.8452 127° Southeast 326 375 12,300 -1,980 Descending FlightAware ADS-B
19:19 40.5097 -73.7988 128° Southeast 318 366 11,200 -2,280 Descending FlightAware ADS-B
19:20 40.4836 -73.7515 126° Southeast 314 361 10,000 -2,400 Descending FlightAware ADS-B
19:20 40.4787 -73.7399 119° Southeast 314 361 9,700 -2,340 Descending FlightAware ADS-B
19:20 40.4740 -73.7138 103° East 311 358 9,200 -2,100 Descending FlightAware ADS-B
19:20 40.4743 -73.7027 88° East 309 356 9,000 -2,760 Descending FlightAware ADS-B
19:20 40.4753 -73.6927 83° East 308 354 8,700 -2,580 Descending FlightAware ADS-B
19:20 40.4792 -73.6649 80° East 310 357 8,100 -2,520 Descending FlightAware ADS-B
19:21 40.4843 -73.6309 79° East 313 360 7,300 -2,580 Descending FlightAware ADS-B
19:21 40.4893 -73.5995 78° East 313 360 6,600 -2,280 Descending FlightAware ADS-B
19:21 40.4933 -73.5766 77° East 309 356 6,200 -2,100 Descending FlightAware ADS-B
19:21 40.4967 -73.5629 72° East 307 353 5,900 -2,520 Descending FlightAware ADS-B
19:21 40.4995 -73.5555 64° Northeast 305 351 5,700 -2,220 Descending FlightAware ADS-B
19:22 40.5135 -73.5357 47° Northeast 293 337 5,200 -1,680 Descending FlightAware ADS-B
19:22 40.5670 -73.5160 16° North 276 318 4,100 -1,080 Descending FlightAware
19:23 40.5980 -73.5080 11° North 248 285 4,000 -120 Descending FlightAware
19:23 40.6310 -73.4980 13° North 234 269 4,000  Level FlightAware
19:24 40.6600 -73.4890 13° North 235 270 4,000 -240 Level FlightAware
19:24 40.6900 -73.4890 360° North 225 259 3,800 -660 Descending FlightAware
19:25 40.7020 -73.4910 353° North 224 258 3,600 -1,140 Descending FlightAware
19:25 40.7170 -73.4980 341° North 214 246 3,300 -960 Descending FlightAware
19:25 40.7350 -73.5140 326° Northwest 204 235 3,000 -360 Descending FlightAware
19:26 40.7560 -73.5350 323° Northwest 183 211 3,000 -480 Level FlightAware
19:26 40.7750 -73.5530 324° Northwest 182 209 2,600 -960 Descending FlightAware
19:27 40.7920 -73.5750 316° Northwest 173 199 2,100 -780 Descending FlightAware
19:27 40.7950 -73.5920 283° West 172 198 2,000 -240 Descending FlightAware
19:27 40.7970 -73.6040 282° West 171 197 2,000  Level FlightAware
19:28 40.7870 -73.6310 244° Southwest 170 196 2,000  Level FlightAware
19:28 40.7740 -73.6510 229° Southwest 169 194 2,000  Level FlightAware
19:28 40.7560 -73.6690 217° Southwest 169 194 2,000  Level FlightAware
19:29 40.7480 -73.6750 210° Southwest 172 198 2,000 -300 Level FlightAware
19:29 40.7250 -73.6920 209° Southwest 173 199 1,800 -600 Descending FlightAware
19:29 40.7170 -73.6980 210° Southwest 170 196 1,600 -780 Descending FlightAware
19:30 40.7090 -73.7050 214° Southwest 159 183 1,500 -660 Descending FlightAware
19:30 40.6930 -73.7180 212° Southwest 129 148 1,200 -780 Descending FlightAware
19:31 40.6780 -73.7290 209° Southwest 118 136 800 -660 Descending FlightAware
19:31 40.6710 -73.7340 208° Southwest 118 136 700 -600 Descending FlightAware
19:31 40.6590 -73.7440 212° Southwest 121 139 400 -600 Descending FlightAware
19:32 40.6470 -73.7530 210° Southwest 121 139 200 -540 Descending FlightAware
19:32 40.6360 -73.7620 212° Southwest 88 101 -540 Descending FlightAware
19:33 40.6300 -73.7670 212° Southwest 27 31  Level FlightAware
19:33 40.6300 -73.7680 270° West 19 22  Level FlightAware
19:33 40.6290 -73.7690 217° Southwest 31 36  Level FlightAware
19:33 40.6300 -73.7710 303° West 15 17  Level FlightAware
19:34 40.6310 -73.7730 303° West 30 35  Level FlightAware
19:34 40.6310 -73.7740 270° West 31 36  Level FlightAware
19:35 40.6320 -73.7760 303° West 28 32  Level FlightAware
19:35 40.6320 -73.7770 270° West 33 38  Level FlightAware